www.pogodaiklimat.ru

Погода и климат >> Архив погоды >> Россия >> Алтайский край >> Чарышское


ПОГОДА в Чарышском

  • Прогноз погоды в Чарышском
  • Монитор погоды в Чарышском
  • Климат города

АРХИВ ПОГОДЫ в Чарышском

Время (UTC), дата Ветер
(напр.,м/с)
 
Видим.   Явления Облачность Т
(С)
Тd
(С)
f
(%)
Тe
(С)
Тes
(С)
Комфортность P
(гПа)
Po
(гПа)
Тmin
(С)
Tmax
(С)
R
(мм)
S
(см)
09 17.02 ЮЗ 1 20 км слабый ливневой дождь 10 баллов +4.3 -2.1 63 +3 +3 1008.9 957.3
12 17.02 З 3 10 км слабый ливневой снег 10 баллов +0.8 -3.1 75 -4 -4 1013.8 961.3 +5.5 0.3
15 17.02 СЗ 5 4000 м снег 10 баллов -4.9 -8.5 76 -12 -12 1022.0 968.0
18 17.02 СЗ 2 4000 м слабый снег 10 баллов -7.3 -10.6 77 -12 -12 1025.4 970.7
21 17.02 С 1 н/о н/о -10.6 -14.3 74 1028.7 973.2
00 18.02 штиль 0 50 км 4 балла -14.1 -16.6 81 -14 -14 1031.1 974.7 -14.1 0.9
03 18.02 ЮВ 1 50 км ясно -16.5 -18.8 82 -19 -18 1031.7 974.7 -18.3
06 18.02 СЗ 1 50 км 7 баллов -12.5 -17.3 67 -15 -13 1029.3 973.3
09 18.02 З 1 50 км 7 баллов -8.7 -15.0 60 -11 -10 1028.4 973.3
12 18.02 штиль 0 50 км ясно -13.7 -17.5 73 -14 -14 1028.2 972.0 -8.4
15 18.02 ЮВ 1 50 км ясно -19.1 -21.2 83 -22 -22 1029.4 972.0
18 18.02 штиль 0 50 км ясно -21.9 -24.5 79 -22 -22 1028.7 970.7
21 18.02 штиль 0 50 км ясно -23.0 -26.0 76 -23 -23 1027.5 969.3
00 19.02 штиль 0 50 км ясно -21.4 -24.3 77 -21 -21 1024.3 966.7 -23.4
03 19.02 штиль 0 50 км 10 баллов -16.1 -18.6 81 -16 -16 1021.6 965.3
06 19.02 ЮВ 1 50 км 10 баллов -11.5 -16.4 67 -14 -14 1019.2 964.0
09 19.02 ЮЗ 5 50 км 10 баллов -2.3 -8.8 61 -8 -8 1018.6 965.3
12 19.02 ЮЗ 3 2000 м снег 10 баллов -4.0 -9.6 65 -9 -9 1023.2 969.3 -1.0 0.3
15 19.02 Ю 4 20 км позёмок 10 баллов -8.3 -15.7 55 -15 -15 1031.2 976.0
18 19.02 ЮЗ 4 50 км позёмок 7 баллов -8.4 -17.9 46 -15 -15 1034.1 978.7
21 19.02 Ю 5 50 км позёмок 4 балла -8.5 -18.5 44 -16 -16 1035.5 980.0
00 20.02 С 1 50 км 7 баллов -9.5 -17.3 53 -12 -12 1032.9 977.3 -9.7 0.0
03 20.02 Ю 5 50 км 10 баллов -6.7 -17.5 42 -14 -14 1032.3 977.3 -10.0
06 20.02 ЮЗ 7 50 км 10 баллов -5.2 -16.4 41 -13 -13 1029.2 974.7
09 20.02 Ю 6 50 км 10 баллов -5.8 -13.6 54 -13 -13 1029.3 974.7
12 20.02 Ю 5 20 км метель 10 баллов -6.3 -13.0 59 -13 -13 1030.8 976.0 -5.1
15 20.02 Ю 5 20 км позёмок 7 баллов -6.0 -13.6 55 -13 -13 1032.1 977.3
18 20.02 Ю 3 20 км позёмок 10 баллов -4.6 -14.2 47 -9 -9 1031.8 977.3
21 20.02 Ю 4 20 км позёмок 10 баллов -4.1 -14.8 43 -10 -10 1031.7 977.3
00 21.02 Ю 5 50 км позёмок 2 балла -3.5 -15.1 40 -10 -10 1030.2 976.0 -6.4
03 21.02 Ю 2
{15}
50 км 10/0
[Ac und]
-2.8 -12.6 47 -6 -6 1028.6 974.5
06 21.02 Ю 3 50 км 10 баллов -0.6 -11.6 43 -5 -5 1028.2 974.7
09 21.02 Ю 5 50 км 10 баллов -0.5 -10.7 46 -6 -6 1028.2 974.7
12 21.02 Ю 4 50 км 9 баллов -1.6 -10.2 52 -7 -7 1029.8 976.0 0.0
15 21.02 Ю 4 50 км 10 баллов -1.9 -9.3 57 -7 -7 1031.2 977.3
18 21.02 Ю 3 50 км 5 баллов -1.6 -8.3 60 -6 -6 1031.2 977.3
21 21.02 ЮВ 1 50 км 2 балла -2.3 -9.0 60 -4 -4 1031.3 977.3
00 22.02 ЮВ 4 50 км 10 баллов -1.3 -8.5 58 -7 -7 1032.6 978.7 -4.4
03 22.02 Ю 2 50 км 10 баллов +0.4 -8.8 50 -2 -2 1032.2 978.7
06 22.02 ЮЗ 2 50 км ясно +3.7 -8.3 41 +2 +7 1031.6 978.7
09 22.02 СЗ 3 50 км ясно +2.7 -7.5 47 -1 +2 1031.8 978.7
12 22.02 штиль 0 50 км ясно -1.0 -6.7 65 -2 -2 1032.5 978.7 +3.8
15 22.02 В 1 50 км ясно -5.2 -8.8 76 -7 -7 1034.8 980.0
18 22.02 В 1 50 км ясно -9.6 -11.5 86 -12 -12 1037.1 981.3
21 22.02 штиль 0 50 км ясно -12.6 -14.4 86 -13 -13 1036.4 980.0
00 23.02 штиль 0 50 км ясно -13.5 -15.3 86 -14 -14 1036.6 980.0 -14.2
03 23.02 штиль 0 50 км ясно -11.4 -13.6 84 -12 -10 1036.1 980.0 -14.6
06 23.02 штиль 0 50 км ясно -1.3 -11.4 46 -2 +6 1032.6 978.7
09 23.02 СЗ 2 50 км ясно +0.6 -9.1 48 -2 +1 1030.7 977.3
12 23.02 ЮВ 1 50 км ясно -3.1 -8.5 66 -5 -5 1031.5 977.3 +3.3
15 23.02 штиль 0 50 км ясно -8.0 -11.1 78 -9 -9 1032.5 977.3
18 23.02 штиль 0 50 км ясно -12.5 -14.5 85 -13 -13 1032.1 976.0
21 23.02 штиль 0 50 км ясно -14.2 -16.2 85 -14 -14 1032.5 976.0
00 24.02 штиль 0 50 км ясно -14.9 -16.8 85 -15 -15 1032.7 976.0 -15.3
03 24.02 штиль 0 50 км ясно -11.0 -13.5 82 -11 -9 1031.8 976.0 -15.7

 

Местоположение метеостанции Чарышское (Алтайский край, Россия): широта 51.38 долгота 83.58 высота над уровнем моря 429 м.

В архиве по умолчанию представлена погода в Чарышском за последнюю неделю. Архивные данные за месяц целиком и за предыдущие месяцы, начиная с января 2011 года, Вы можете получить, выбрав интересующий диапазон дат из раскрывающегося списка и нажав кнопку "Ввод!".

Внимание! Время в таблицах - всемирное. Для получения местного времени необходимо прибавить поправку, которая в Чарышском равна 7 ч.

Смотрите также архив погоды в соседних городах и на ближайших метеорологических станциях:

Погода в Солонешном (Алтайский край, Россия) (59 км)
Погода в Краснощеково (Алтайский край, Россия) (67 км)
Погода в Усть-Калманке (Алтайский край, Россия) (83 км)
Погода в Усть-Кане (Алтай, Россия) (96 км)
Погода в Змеиногорске (Алтайский край, Россия) (101 км)
Погода в Усть-Чарышской Пристани (Алтайский край, Россия) (114 км)
Погода в Белокурихе (Алтайский край, Россия) (117 км)
Погода в Риддере (Восточно-Казахстанская область, Казахстан) (117 км)
Погода в Шипуново (Алтайский край, Россия) (125 км)
Погода в Секисовке (Восточно-Казахстанская область, Казахстан) (136 км)

Пояснения к столбцам:

Ветер - указаны скорость ветра в м/с - средняя за 10 мин, порывы в срок и между сроками (в фигурных скобках) и направление, откуда дует ветер: С - северный, СВ - северо-восточный, В - восточный, ЮВ - юго-восточный, Ю - южный, ЮЗ - юго-западный, З - западный, СЗ - северо-западный.
Видимость - горизонтальная дальность видимости в метрах или километрах. При видимости от 1 до 10 км при отсутствии осадков обычно наблюдается дымка, при ухудшении видимости до 1 км и менее - туман. В сухую погоду видимость может ухудшаться дымом, пылью или мглою.
Явления - указаны атмосферные явления, наблюдавшиеся в срок или в последний час перед сроком; фигурными скобками обозначены явления, наблюдавшиеся между сроками (за 1-3 часа до срока); квадратными скобками обозначены град или гололедные отложения с указанием их диаметра в мм.
Облачность - указаны через наклонную черту общая и нижняя облачность в баллах и высота нижней границы облаков в метрах; квадратными скобками обозначены формы облаков: Ci - перистые, Cs - перисто-слоистые, Cc - перисто-кучевые, Ac - высококучевые, As - высокослоистые, Sc - слоисто-кучевые, Ns - слоисто-дождевые, Cu - кучевые, Cb - кучево-дождевые. Подробнее классификацию облаков см. в Атласе облаков (PDF).
T - Температура воздуха - температура, измеренная на высоте 2 м над землей.
Td - Температура точки росы - температура, при понижении до которой содержащийся в воздухе водяной пар достигнет насыщения.
f - Относительная влажность воздуха - влажноcть воздуха, измеренная на высоте 2 м над землей.
Te - Эффективная температура - температура, которую ощущает одетый по сезону человек в тени. Характеристика душности погоды. При расчете учитывается влияние влажности воздуха и скорости ветра на теплоощущения человека.
Tes - Эффективная температура на солнце - температура, которую ощущает человек, с поправкой на солнечный нагрев. Характеристика знойности погоды. Зависит от высоты солнца над горизонтом, облачности и скорости ветра. Ночью, в пасмурную погоду, а также при ветре 12 м/с и более поправка равна нулю.
P - Атмосферное давление - приведенное к уровню моря атмосферное давление.
Po - Атмосферное давление - измеренное на уровне метеостанции атмосферное давление.
Tmin - Минимальная температура - минимум температуры воздуха на высоте 2 м над землей.
Tmax - Максимальная температура - максимум температуры воздуха на высоте 2 м над землей.
R - Количество осадков - Количество выпавших осадков, мм. При наведении курсора мыши на число - период времени, за который выпало указанное количество осадков.
S - Снежный покров - Высота снежного покрова, см. При наведении курсора мыши на число - состояние снежного покрова и степень покрытия местности в баллах.